SCOUT X-4 R/B, 933

Orbit data source: Space-Track

SCOUT X-4 R/B, 933 is space debris in LEO originally from a launch on Sat, 21 Nov 1964 UTC launched from the Air Force Western Test Range (AFWTR). Debris objects in space refer to the collection of defunct objects orbiting the Earth. Examples of debris include non-operational satellites, rocket bodies, and fragments generated from explosions, collisions, or faulty payload assembly.

Loading next visibility...
Identifier
933, 1964-076C
Orbit
LEO
Last TLE update
20 hours ago
Origin
Manufacturer
ABL
Mission
Spacecraft
Bus & Motor
ALTAIR, Unknown motor
Mass
33 kg wet, 33 kg dry
Launch date (UTC)
1964-11-21 (60 years ago)
Launch vehicle
Unknown
Launch site
Air Force Western Test Range (AFWTR)
Object type
Payload
Rocket body
Debris
Shape & HBR
Cyl, 1.5 m
Radar Cross Section
0.687 m², Medium (>0.1 m² and < 1m²)

Expand to show TLE details & history

TLE from 20 hours ago
0 SCOUT X-4 R/B
1 00933U 64076C   25128.41031108  .00000606  00000-0  20210-3 0  9994
2 00933  81.3331 109.4291 1053025 215.7002 136.9100 12.81567685784711
Epoch: 2025-05-08T09:50Z
Definitive object data (Epoch: 2025-05-08T09:50:50.877Z)
Latitude
0.00001°
Longitude
95.23591°
Altitude
1,966.798 km
Speed
6.625 km/s
True Right ascension
07h 17m 42s
True Declination
0° 00' 00"
Sunlit
Object was in daylight at TLE epoch
Visualization TLE readout
Latitude
-74.47715°
Longitude
-52.34338°
Altitude
732.754 km
Speed
7.789 km/s
Apparent Right ascension
00h 52m 59s
Apparent Declination
-61° 45' 02"
Sunlit
Object is in daylight
Visualization observer readout
Local Sidereal Time
14:03:53
Azimuth
159.546° S
Elevation
-65.648°
Doppler factor
1
Orbital elements
Apogee altitude
2,144.42 km
Perigee altitude
520.527 km
Semi-major axis
7,710.611 km
Eccentricity
0.1053025
Inclination
81.3331°
RAAN
109.4291°
Arg. of periapsis
215.7002°
True anomaly
144.40712°
Mean anomaly
136.91°
Eccentric anomaly
140.72906°
Mean motion
3.20561 °/min
BSTAR
0.0002021
Orbital period
112.3 mins
Loading maneuver chart data...
Loading SW <> Apogee altitude chart data...
Loading historical data...
Loading historical data...
Loading historical data...
Loading historical data...
Loading historical data...
Loading historical data...
Loading historical data...

SCOUT X-4 R/B Visibility forecast

Observer location: undefined°, undefined°

Span
Click to sort rows by Start time (UTC) header in descending order
Start Az.
Max El. time (UTC)
Max El. Az.
Max El.
End time (UTC)
End Az.
9 mins2025-05-09 09:02:08.735Z15.173° NNE2025-05-09 09:07:08.735Z57.212° ENE20.24°2025-05-09 09:11:08.735Z102.075° ESE
10 mins2025-05-09 10:56:08.735Z340.968° N2025-05-09 11:02:08.735Z254.895° W39.783°2025-05-09 11:06:08.735Z194.422° SSW
17 mins2025-05-09 21:34:08.735Z127.307° SE2025-05-09 21:42:08.735Z82.606° E24.938°2025-05-09 21:51:08.735Z31.023° NE
22 mins2025-05-09 23:24:08.735Z188.068° SSW2025-05-09 23:35:08.735Z323.51° NNW44.9°2025-05-09 23:46:08.735Z8.687° NNE
17 mins2025-05-10 01:21:08.735Z248.746° W2025-05-10 01:30:08.735Z299.893° NW23.851°2025-05-10 01:38:08.735Z346.848° N
|